Time,TemperatureF,DewpointF,PressureIn,WindDirection,WindDirectionDegrees,WindSpeedMPH,WindSpeedGustMPH,Humidity,HourlyPrecipIn,Conditions,Clouds,dailyrainin,SoftwareType,DateUTC
2013-07-15 00:04:00,65.7,63.0,30.19,NNW,348,0.0,0.0,92,0.00,,,0.00,weatherlink.com 1.10,2013-07-15 04:04:00,
2013-07-15 00:19:00,65.3,63.0,30.18,NNW,348,0.0,0.0,93,0.00,,,0.00,weatherlink.com 1.10,2013-07-15 04:19:00,
2013-07-15 00:34:00,65.0,63.0,30.18,NNW,348,0.0,0.0,93,0.00,,,0.00,weatherlink.com 1.10,2013-07-15 04:34:00,
2013-07-15 00:49:00,65.1,63.0,30.18,NNW,348,0.0,0.0,93,0.00,,,0.00,weatherlink.com 1.10,2013-07-15 04:49:00,
2013-07-15 01:04:00,65.2,63.0,30.18,NNW,328,0.0,1.0,93,0.00,,,0.00,weatherlink.com 1.10,2013-07-15 05:04:00,
2013-07-15 01:19:00,65.4,64.0,30.18,NNW,328,0.0,1.0,94,0.00,,,0.00,weatherlink.com 1.10,2013-07-15 05:19:00,
2013-07-15 01:34:00,65.2,63.0,30.18,NNW,332,0.0,2.0,93,0.00,,,0.00,weatherlink.com 1.10,2013-07-15 05:34:00,
2013-07-15 01:49:00,65.5,64.0,30.18,North,5,0.0,4.0,94,0.00,,,0.00,weatherlink.com 1.10,2013-07-15 05:49:00,
2013-07-15 02:04:00,65.6,64.0,30.18,North,350,0.0,2.0,94,0.00,,,0.00,weatherlink.com 1.10,2013-07-15 06:04:00,
2013-07-15 02:19:00,65.6,64.0,30.18,NW,316,0.0,3.0,94,0.00,,,0.00,weatherlink.com 1.10,2013-07-15 06:19:00,
2013-07-15 02:34:00,65.5,64.0,30.18,NW,321,0.0,1.0,95,0.00,,,0.00,weatherlink.com 1.10,2013-07-15 06:34:00,
2013-07-15 02:49:00,65.0,63.0,30.18,NW,321,0.0,0.0,94,0.00,,,0.00,weatherlink.com 1.10,2013-07-15 06:49:00,
2013-07-15 03:04:00,65.2,64.0,30.18,NW,321,0.0,1.0,95,0.00,,,0.00,weatherlink.com 1.10,2013-07-15 07:04:00,
2013-07-15 03:19:00,65.0,64.0,30.18,NW,321,0.0,1.0,95,0.00,,,0.00,weatherlink.com 1.10,2013-07-15 07:19:00,
2013-07-15 03:34:00,64.7,63.0,30.18,NW,321,0.0,1.0,95,0.00,,,0.00,weatherlink.com 1.10,2013-07-15 07:34:00,
2013-07-15 03:49:00,64.5,63.0,30.18,NW,321,0.0,0.0,96,0.00,,,0.00,weatherlink.com 1.10,2013-07-15 07:49:00,
2013-07-15 04:04:00,64.5,63.0,30.18,NW,321,0.0,1.0,96,0.00,,,0.00,weatherlink.com 1.10,2013-07-15 08:04:00,
2013-07-15 04:19:00,64.5,63.0,30.17,NW,321,0.0,1.0,96,0.00,,,0.00,weatherlink.com 1.10,2013-07-15 08:19:00,
2013-07-15 04:34:00,64.7,64.0,30.17,NW,321,0.0,1.0,96,0.00,,,0.00,weatherlink.com 1.10,2013-07-15 08:34:00,
2013-07-15 04:49:00,64.5,63.0,30.17,NW,321,0.0,0.0,96,0.00,,,0.00,weatherlink.com 1.10,2013-07-15 08:49:00,
2013-07-15 05:05:00,64.6,64.0,30.17,NW,321,0.0,0.0,96,0.00,,,0.00,weatherlink.com 1.10,2013-07-15 09:05:00,
2013-07-15 05:19:00,64.7,64.0,30.17,NW,321,0.0,1.0,96,0.00,,,0.00,weatherlink.com 1.10,2013-07-15 09:19:00,
2013-07-15 05:35:00,64.9,64.0,30.17,NW,321,0.0,1.0,96,0.00,,,0.00,weatherlink.com 1.10,2013-07-15 09:35:00,
2013-07-15 05:50:00,65.5,64.0,30.17,NW,321,0.0,1.0,96,0.00,,,0.00,weatherlink.com 1.10,2013-07-15 09:50:00,
2013-07-15 06:05:00,67.5,66.0,30.17,NW,320,0.0,2.0,94,0.00,,,0.00,weatherlink.com 1.10,2013-07-15 10:05:00,
2013-07-15 06:20:00,67.7,65.0,30.17,NW,321,0.0,1.0,92,0.00,,,0.00,weatherlink.com 1.10,2013-07-15 10:20:00,
2013-07-15 06:35:00,69.2,66.0,30.17,NW,323,0.0,4.0,90,0.00,,,0.00,weatherlink.com 1.10,2013-07-15 10:35:00,
2013-07-15 06:50:00,70.6,67.0,30.17,NW,321,0.0,1.0,88,0.00,,,0.00,weatherlink.com 1.10,2013-07-15 10:50:00,
2013-07-15 07:05:00,71.3,68.0,30.17,North,355,0.0,4.0,88,0.00,,,0.00,weatherlink.com 1.10,2013-07-15 11:05:00,
2013-07-15 07:20:00,72.3,68.0,30.17,NNE,24,0.0,2.0,85,0.00,,,0.00,weatherlink.com 1.10,2013-07-15 11:20:00,
2013-07-15 07:35:00,73.1,68.0,30.17,NNE,23,0.0,4.0,84,0.00,,,0.00,weatherlink.com 1.10,2013-07-15 11:35:00,
2013-07-15 07:50:00,73.8,68.0,30.17,NE,36,0.0,8.0,82,0.00,,,0.00,weatherlink.com 1.10,2013-07-15 11:50:00,
2013-07-15 08:05:00,74.5,68.0,30.17,NNE,22,0.0,2.0,81,0.00,,,0.00,weatherlink.com 1.10,2013-07-15 12:05:00,
2013-07-15 08:20:00,74.3,68.0,30.17,North,5,1.0,3.0,81,0.00,,,0.00,weatherlink.com 1.10,2013-07-15 12:20:00,
2013-07-15 08:35:00,75.0,68.0,30.17,NNE,19,0.0,9.0,80,0.00,,,0.00,weatherlink.com 1.10,2013-07-15 12:35:00,
2013-07-15 08:50:00,75.5,68.0,30.17,NNW,344,1.0,7.0,78,0.00,,,0.00,weatherlink.com 1.10,2013-07-15 12:50:00,
2013-07-15 09:05:00,75.8,68.0,30.17,NNE,22,0.0,5.0,76,0.00,,,0.00,weatherlink.com 1.10,2013-07-15 13:05:00,
2013-07-15 09:20:00,76.0,68.0,30.16,NE,37,0.0,5.0,76,0.00,,,0.00,weatherlink.com 1.10,2013-07-15 13:20:00,
2013-07-15 09:35:00,75.8,68.0,30.16,NNE,16,1.0,7.0,76,0.00,,,0.00,weatherlink.com 1.10,2013-07-15 13:35:00,
2013-07-15 09:50:00,76.1,68.0,30.16,NNE,19,2.0,7.0,75,0.00,,,0.00,weatherlink.com 1.10,2013-07-15 13:50:00,
2013-07-15 10:05:00,76.6,68.0,30.16,NW,315,0.0,5.0,74,0.00,,,0.00,weatherlink.com 1.10,2013-07-15 14:05:00,
2013-07-15 10:20:00,76.5,66.0,30.15,NNE,28,3.0,9.0,71,0.00,,,0.00,weatherlink.com 1.10,2013-07-15 14:20:00,
2013-07-15 10:35:00,76.4,67.0,30.15,North,355,0.0,5.0,73,0.00,,,0.00,weatherlink.com 1.10,2013-07-15 14:35:00,
2013-07-15 11:05:00,77.2,67.0,30.15,NNE,15,3.0,8.0,70,0.00,,,0.00,weatherlink.com 1.10,2013-07-15 15:05:00,
2013-07-15 11:20:00,77.8,66.0,30.15,NNE,32,2.0,10.0,68,0.00,,,0.00,weatherlink.com 1.10,2013-07-15 15:20:00,
2013-07-15 12:05:00,79.0,64.0,30.14,North,5,2.0,7.0,61,0.00,,,0.00,weatherlink.com 1.10,2013-07-15 16:05:00,
2013-07-15 12:20:00,79.1,65.0,30.14,NE,38,1.0,5.0,62,0.00,,,0.00,weatherlink.com 1.10,2013-07-15 16:20:00,
2013-07-15 12:35:00,78.5,65.0,30.14,North,5,0.0,5.0,64,0.00,,,0.00,weatherlink.com 1.10,2013-07-15 16:35:00,
2013-07-15 12:50:00,79.6,66.0,30.13,North,5,2.0,7.0,63,0.00,,,0.00,weatherlink.com 1.10,2013-07-15 16:50:00,
2013-07-15 13:06:00,79.6,64.0,30.13,NNW,329,0.0,7.0,60,0.00,,,0.00,weatherlink.com 1.10,2013-07-15 17:06:00,
2013-07-15 13:20:00,78.6,66.0,30.13,NNW,345,2.0,6.0,65,0.00,,,0.00,weatherlink.com 1.10,2013-07-15 17:20:00,
2013-07-15 13:36:00,80.3,66.0,30.12,NE,34,0.0,5.0,61,0.00,,,0.00,weatherlink.com 1.10,2013-07-15 17:36:00,
2013-07-15 13:51:00,79.6,65.0,30.12,NNE,32,2.0,9.0,62,0.00,,,0.00,weatherlink.com 1.10,2013-07-15 17:51:00,
2013-07-15 14:06:00,80.7,65.0,30.12,North,5,0.0,8.0,59,0.00,,,0.00,weatherlink.com 1.10,2013-07-15 18:06:00,
2013-07-15 14:36:00,79.8,64.0,30.11,North,11,0.0,6.0,59,0.00,,,0.00,weatherlink.com 1.10,2013-07-15 18:36:00,
2013-07-15 14:51:00,80.9,65.0,30.11,NNE,17,3.0,8.0,58,0.00,,,0.00,weatherlink.com 1.10,2013-07-15 18:51:00,
2013-07-15 15:06:00,80.7,64.0,30.11,NNE,15,3.0,6.0,58,0.00,,,0.00,weatherlink.com 1.10,2013-07-15 19:06:00,
2013-07-15 15:36:00,80.1,65.0,30.11,NE,40,3.0,6.0,61,0.00,,,0.00,weatherlink.com 1.10,2013-07-15 19:36:00,
2013-07-15 15:51:00,79.8,66.0,30.11,NNW,338,5.0,8.0,62,0.00,,,0.00,weatherlink.com 1.10,2013-07-15 19:51:00,
2013-07-15 16:21:00,80.0,66.0,30.10,North,9,1.0,10.0,63,0.00,,,0.00,weatherlink.com 1.10,2013-07-15 20:21:00,
2013-07-15 16:36:00,80.4,65.0,30.09,NNW,340,0.0,9.0,59,0.00,,,0.00,weatherlink.com 1.10,2013-07-15 20:36:00,
2013-07-15 16:51:00,79.4,66.0,30.09,NNE,30,1.0,6.0,63,0.00,,,0.00,weatherlink.com 1.10,2013-07-15 20:51:00,
2013-07-15 17:06:00,79.4,66.0,30.09,North,11,1.0,6.0,64,0.00,,,0.00,weatherlink.com 1.10,2013-07-15 21:06:00,
2013-07-15 17:21:00,78.4,67.0,30.09,North,5,1.0,5.0,67,0.00,,,0.00,weatherlink.com 1.10,2013-07-15 21:21:00,
2013-07-15 17:52:00,76.9,66.0,30.09,NW,316,0.0,5.0,68,0.00,,,0.00,weatherlink.com 1.10,2013-07-15 21:52:00,
2013-07-15 18:06:00,76.2,66.0,30.09,NNW,335,0.0,3.0,70,0.00,,,0.00,weatherlink.com 1.10,2013-07-15 22:06:00,
2013-07-15 18:21:00,77.5,66.0,30.09,North,360,1.0,6.0,67,0.00,,,0.00,weatherlink.com 1.10,2013-07-15 22:21:00,
2013-07-15 18:36:00,77.3,65.0,30.09,NE,39,0.0,5.0,67,0.00,,,0.00,weatherlink.com 1.10,2013-07-15 22:36:00,
2013-07-15 18:51:00,76.8,65.0,30.10,North,9,0.0,8.0,68,0.00,,,0.00,weatherlink.com 1.10,2013-07-15 22:51:00,
2013-07-15 19:06:00,76.1,66.0,30.09,NNE,19,0.0,4.0,70,0.00,,,0.00,weatherlink.com 1.10,2013-07-15 23:06:00,
2013-07-15 19:21:00,75.4,66.0,30.10,North,360,1.0,5.0,72,0.00,,,0.00,weatherlink.com 1.10,2013-07-15 23:21:00,
2013-07-15 19:36:00,75.1,66.0,30.10,NE,42,0.0,5.0,73,0.00,,,0.00,weatherlink.com 1.10,2013-07-15 23:36:00,
2013-07-15 19:51:00,74.2,66.0,30.10,NW,310,1.0,2.0,75,0.00,,,0.00,weatherlink.com 1.10,2013-07-15 23:51:00,
2013-07-15 20:06:00,72.9,66.0,30.10,NNW,333,0.0,2.0,78,0.00,,,0.00,weatherlink.com 1.10,2013-07-16 00:06:00,
2013-07-15 20:21:00,71.8,65.0,30.10,NNW,328,0.0,2.0,80,0.00,,,0.00,weatherlink.com 1.10,2013-07-16 00:21:00,
2013-07-15 20:36:00,71.0,66.0,30.10,NW,317,0.0,2.0,83,0.00,,,0.00,weatherlink.com 1.10,2013-07-16 00:36:00,
2013-07-15 20:51:00,71.2,65.0,30.11,NNW,331,1.0,2.0,81,0.00,,,0.00,weatherlink.com 1.10,2013-07-16 00:51:00,
2013-07-15 21:06:00,71.1,64.0,30.12,NNW,327,0.0,3.0,79,0.00,,,0.00,weatherlink.com 1.10,2013-07-16 01:06:00,
2013-07-15 21:21:00,71.1,64.0,30.12,North,355,0.0,1.0,79,0.00,,,0.00,weatherlink.com 1.10,2013-07-16 01:21:00,
2013-07-15 21:36:00,70.7,64.0,30.12,North,355,0.0,1.0,79,0.00,,,0.00,weatherlink.com 1.10,2013-07-16 01:36:00,
2013-07-15 21:51:00,69.5,64.0,30.12,North,355,0.0,0.0,82,0.00,,,0.00,weatherlink.com 1.10,2013-07-16 01:51:00,
2013-07-15 22:06:00,69.0,64.0,30.12,NNW,333,0.0,2.0,84,0.00,,,0.00,weatherlink.com 1.10,2013-07-16 02:06:00,
2013-07-15 22:21:00,68.9,64.0,30.12,NW,323,0.0,1.0,84,0.00,,,0.00,weatherlink.com 1.10,2013-07-16 02:21:00,
2013-07-15 22:36:00,68.9,64.0,30.12,NW,323,0.0,2.0,84,0.00,,,0.00,weatherlink.com 1.10,2013-07-16 02:36:00,
2013-07-15 23:08:00,69.3,64.0,30.12,NW,317,0.0,3.0,84,0.00,,,0.00,weatherlink.com 1.10,2013-07-16 03:08:00,
2013-07-15 23:21:00,69.0,64.0,30.12,NW,318,0.0,3.0,85,0.00,,,0.00,weatherlink.com 1.10,2013-07-16 03:21:00,
2013-07-15 23:36:00,69.3,65.0,30.12,NNW,334,0.0,4.0,85,0.00,,,0.00,weatherlink.com 1.10,2013-07-16 03:36:00,
2013-07-15 23:51:00,68.9,65.0,30.11,North,355,0.0,2.0,86,0.00,,,0.00,weatherlink.com 1.10,2013-07-16 03:51:00,